Location: Unspecified
(0.0000°N, 0.0000°E)
Time: 07:32:38
(UTC+01:00)

ARIANE 5 R/B - Visible Passes

Search period start: 21 November 2017 00:00
Search period end: 01 December 2017 00:00
Orbit: 628 x 38474 km, 7.0° (Epoch: 20 November)

Date Brightness Start Highest point End Pass type
(mag) Time Alt. Az. Time Alt. Az. Time Alt. Az.
21 Nov 6.1 11:10:42 10° W 13:32:02 85° SSW 22:02:05 70° NNE visible
22 Nov 6.2 10:11:47 10° W 14:33:39 88° S 21:07:24 46° ENE visible
23 Nov 6.7 09:13:33 10° W 19:48:30 79° N 20:12:43 24° ENE visible
24 Nov 6.4 08:15:47 10° W 18:18:23 83° NNW 19:17:05 10° E visible
26 Nov 5.4 06:21:02 10° W 06:27:11 69° S 17:16:39 10° E visible
27 Nov 4.4 05:25:16 25° WSW 05:28:24 67° S 05:51:20 10° E visible
28 Nov 3.6 04:30:29 67° SSE 04:30:29 67° SSE 04:40:58 10° E visible
29 Nov 5.6 03:35:42 21° ESE 03:35:42 21° ESE 03:38:14 10° E visible
29 Nov 11.2 17:21:46 10° W 17:28:12 10° W 17:34:54 10° W visible
30 Nov 10.2 15:13:03 10° W 16:32:05 24° W 19:09:38 10° W visible
